6.6,99.9,1004.0,201911290030
6.6,99.9,1004.2,201911290100
6.5,99.9,1004.5,201911290130
6.4,99.9,1004.4,201911290200
6.4,99.9,1004.5,201911290230
6.3,99.9,1004.5,201911290300
5.9,99.9,1004.6,201911290330
5.9,99.9,1004.6,201911290400
5.9,99.9,1004.8,201911290430
6.0,99.9,1004.8,201911290500
6.1,99.9,1004.9,201911290530
6.2,99.9,1005.3,201911290600
6.2,99.9,1005.4,201911290630
6.3,99.9,1005.8,201911290700
6.2,99.9,1006.2,201911290730
6.2,99.9,1006.4,201911290800
6.4,99.9,1006.7,201911290830
6.6,99.9,1006.9,201911290900
7.1,99.9,1007.4,201911290930
7.0,99.9,1007.5,201911291000
6.8,99.9,1007.7,201911291030
7.2,99.9,1007.9,201911291100
6.5,99.9,1008.1,201911291130
6.7,99.9,1008.2,201911291200
6.4,99.9,1008.3,201911291230
5.8,99.9,1008.5,201911291300
5.7,99.9,1008.8,201911291330
5.2,99.9,1010.1,201911291400
5.0,99.9,1010.6,201911291430
5.0,99.9,1011.1,201911291500
4.7,99.9,1011.6,201911291530
4.6,99.9,1012.1,201911291600
4.3,99.9,1012.6,201911291630
3.7,99.9,1013.2,201911291700
3.5,99.9,1013.7,201911291730
3.4,99.9,1014.2,201911291800
3.2,99.9,1014.6,201911291830
3.0,99.9,1014.9,201911291900
2.9,99.9,1015.6,201911291930
2.6,99.9,1016.0,201911292000
2.2,99.9,1016.3,201911292030
2.0,99.9,1016.5,201911292100
1.6,99.9,1016.8,201911292130
1.6,99.9,1017.2,201911292200
1.4,99.9,1017.7,201911292230
1.5,99.9,1017.9,201911292300
1.6,99.9,1018.2,201911292330
1.5,99.9,1018.4,201911300000
1.8,99.9,1018.6,201911300030
1.8,99.9,1019.1,201911300100
1.9,99.9,1019.6,201911300130
1.9,99.9,1019.5,201911300200
1.9,99.9,1019.8,201911300230
2.0,99.9,1020.0,201911300300
1.9,99.9,1020.2,201911300330
1.9,99.9,1020.4,201911300400
2.0,99.9,1020.7,201911300430
1.9,99.9,1020.7,201911300500
1.9,99.9,1021.0,201911300530
1.8,99.9,1021.2,201911300600
1.9,99.9,1021.1,201911300630
1.8,99.9,1021.5,201911300700
1.8,99.9,1021.7,201911300730
1.9,99.9,1021.8,201911300800
2.1,99.9,1022.0,201911300830
2.3,99.9,1022.2,201911300900
2.6,99.9,1022.4,201911300930
3.3,99.9,1022.5,201911301000
3.6,99.9,1022.3,201911301030
3.6,99.9,1022.0,201911301100
4.0,99.9,1022.0,201911301130
4.5,99.9,1022.0,201911301200
5.4,99.9,1021.7,201911301230
5.7,99.9,1021.7,201911301300
3.6,99.9,1021.7,201911301330
3.5,98.8,1021.7,201911301400
2.8,99.9,1021.6,201911301430
2.2,41.5,1021.7,201911301500
2.1,45.7,1021.7,201911301530
1.9,58.5,1021.7,201911301600
1.6,80.0,1021.7,201911301630
1.2,88.0,1021.6,201911301700
1.2,87.6,1021.4,201911301730
0.6,87.5,1021.3,201911301800
0.2,99.9,1021.2,201911301830
0.2,99.9,1021.1,201911301900
0.1,99.9,1021.0,201911301930
0.1,99.9,1020.8,201911302000
0.0,99.9,1020.5,201911302030
-0.3,99.9,1020.6,201911302100
-0.1,99.9,1020.4,201911302130
-0.2,99.9,1020.2,201911302200
-0.7,99.9,1020.0,201911302230
-0.8,99.9,1019.9,201911302300
-1.0,99.9,1019.0,201911302330
-1.1,99.9,1019.0,201912010000
